TimeMDT,TemperatureF,Dew PointF,Humidity,Sea Level PressureIn,VisibilityMPH,Wind Direction,Wind SpeedMPH,Gust SpeedMPH,PrecipitationIn,Events,Conditions,WindDirDegrees,DateUTC
12:53 AM,57.9,43.0,58,29.96,10.0,ENE,10.4,-,N/A,,Scattered Clouds,70,2012-10-12 06:53:00
2:53 AM,57.0,42.1,57,29.93,10.0,ESE,9.2,-,N/A,,Mostly Cloudy,110,2012-10-12 08:53:00
3:53 AM,57.0,42.1,57,29.91,10.0,ESE,8.1,-,N/A,,Mostly Cloudy,110,2012-10-12 09:53:00
4:53 AM,55.9,44.1,64,29.89,10.0,East,10.4,-,0.01,Rain,Light Rain,80,2012-10-12 10:53:00
5:53 AM,55.9,44.1,64,29.91,10.0,East,12.7,-,0.00,,Mostly Cloudy,90,2012-10-12 11:53:00
6:53 AM,55.0,43.0,64,29.94,10.0,West,5.8,-,0.00,,Mostly Cloudy,280,2012-10-12 12:53:00
7:53 AM,55.0,43.0,64,29.93,10.0,NE,4.6,-,N/A,,Mostly Cloudy,40,2012-10-12 13:53:00
8:53 AM,52.0,46.0,80,30.00,10.0,West,9.2,26.5,0.01,,Scattered Clouds,260,2012-10-12 14:53:00
9:53 AM,59.0,48.0,67,29.96,10.0,NE,4.6,-,N/A,,Scattered Clouds,40,2012-10-12 15:53:00
11:53 AM,61.0,46.9,60,29.94,10.0,WNW,4.6,-,0.00,,Scattered Clouds,290,2012-10-12 17:53:00
1:12 PM,66.2,44.6,46,30.02,10.0,WSW,15.0,20.7,N/A,,Partly Cloudy,250,2012-10-12 19:12:00
1:53 PM,66.0,41.0,40,29.88,10.0,West,11.5,21.9,N/A,,Scattered Clouds,260,2012-10-12 19:53:00
2:53 PM,69.1,32.0,25,29.86,10.0,WSW,21.9,29.9,N/A,,Partly Cloudy,240,2012-10-12 20:53:00
4:53 PM,61.0,26.1,26,29.91,10.0,WSW,18.4,32.2,N/A,,Clear,250,2012-10-12 22:53:00
5:53 PM,60.1,26.1,27,29.93,10.0,West,19.6,25.3,N/A,,Clear,270,2012-10-12 23:53:00
6:53 PM,55.9,27.0,33,29.96,10.0,West,10.4,18.4,N/A,,Clear,270,2012-10-13 00:53:00
7:53 PM,52.0,32.0,47,30.00,10.0,WNW,6.9,-,N/A,,Clear,300,2012-10-13 01:53:00
8:53 PM,48.9,33.1,54,30.04,10.0,WSW,8.1,-,N/A,,Clear,250,2012-10-13 02:53:00
9:53 PM,46.9,32.0,56,30.05,10.0,WNW,4.6,-,N/A,,Clear,300,2012-10-13 03:53:00
10:53 PM,46.0,32.0,58,30.06,10.0,North,6.9,-,N/A,,Clear,10,2012-10-13 04:53:00
11:53 PM,45.0,30.9,58,30.05,10.0,Calm,Calm,-,N/A,,Clear,0,2012-10-13 05:53:00